"Pseudo-MPEC" for P10SBuL

Created 2019 Oct 21 2:07:33 UT using Find_Orb

Click here for an explanation of pseudo-MPECs

 
 Astrometry: 
     P10SBuL  C2019 10 08jH/kGugH6OTx83uhAstrometryE-VsxDOd9MEXmhI;w:cr(e.1s-F51
     P10SBuL  C2019 10 08I-\l,CHYAFb__5*:nw(=9WVx9Aaredacted;J:HNclickG*t.'vgF51
     P10SBuL  C2019 10 08ICPbhere\?mv3jY*)997for/ZR4uv^6^f2Li/VQluDBc5!mr:cf,F51
     P10SBuL ^C2019 10 09sF^-explanationu_ILC_0/K6R[l*MhNI+=Kxj?bV%5VdvR#EX^h695
     P10SBuL ^C2019 10 09d/YjKFqmOAxlFQ\emlE(I/$!f#3fa!*JZGo`mfSBa,i-]%M*rr2A695
     P10SBuL ^C2019 10 09[jvGGcg.dr2ys'_fHlc/RRqi1Ds)p_$QOTRv=s^\EK[Rt+T@HdsT695

Station data:
(695) Kitt Peak  (N31.958398 W111.594670)  US/Arizona.
(F51) Pan-STARRS 1, Haleakala  (N20.707235 W156.255910)  US/Hawaii.
   Observers N. Primak, A. Schultz, S. Watters, J. Thiel, T. Goggia. Measurer
   PS1 Science Consortium. 1.8-m Ritchey-Chrétien + CCD.

Orbital elements:  P10SBuL
   Perihelion 2019 Apr 26.547354 +/- 247 TT = 13:08:11 (JD 2458600.047354)
Epoch 2019 Oct  9.0 TT = JDT 2458765.5   Earth MOID: 0.3268   Ma: 0.0216
M  61.59213301 +/- 80               (J2000 ecliptic)          AutoNEOCP
n   0.37226441 +/- 0.273            Peri.  156.07933 +/- 80
a   1.91382268 +/- 0.945            Node   146.68022 +/- 49
e   0.3097446 +/- 0.256             Incl.   24.62032 +/- 15
P   2.65/967.04d           H 19.8   G  0.15   U 11.9  SR
q 1.32102641 +/- 1.1    Q 2.50661896 +/- 37.1
From 6 observations 2019 Oct. 8-9 (21.3 hr); mean residual 0".11
Residuals in arcseconds: 
191008 F51  .21-  .06-    191008 F51  .16+  .04+    191009 695  .19+  .10+    
191008 F51  .05+  .02+    191009 695  .06-  .12-    191009 695  .13-  .02+    

Ephemerides (geocentric):
Date (UTC) HH   RA              Dec         delta   r     elong  mag " sig PA
---- -- -- --  -------------   -----------  ------ ------ -----  --- ---- ---
2019 10 21 02  04 42 01.448   -22 03 07.34  1.0890 1.8491 124.9 22.5 1277 133
2019 10 21 03  04 41 59.839   -22 03 43.59  1.0890 1.8492 125.0 22.5 1287 133
2019 10 21 04  04 41 58.225   -22 04 19.80  1.0890 1.8494 125.0 22.5 1298 133
2019 10 21 05  04 41 56.607   -22 04 55.98  1.0890 1.8496 125.0 22.5 1308 133
2019 10 21 06  04 41 54.985   -22 05 32.13  1.0890 1.8497 125.0 22.5 1318 133
2019 10 21 07  04 41 53.358   -22 06 08.23  1.0890 1.8499 125.0 22.5 1329 133
2019 10 21 08  04 41 51.727   -22 06 44.31  1.0890 1.8501 125.1 22.5 1340 133
2019 10 21 09  04 41 50.091   -22 07 20.34  1.0890 1.8502 125.1 22.5 1350 133
2019 10 21 10  04 41 48.451   -22 07 56.35  1.0890 1.8504 125.1 22.5 1361 133
2019 10 21 11  04 41 46.806   -22 08 32.31  1.0889 1.8506 125.1 22.5 1372 133
2019 10 21 12  04 41 45.157   -22 09 08.24  1.0889 1.8507 125.2 22.5 1382 133
2019 10 21 13  04 41 43.504   -22 09 44.14  1.0889 1.8509 125.2 22.5 1393 133
2019 10 21 14  04 41 41.846   -22 10 19.99  1.0889 1.8511 125.2 22.5 1404 133
2019 10 21 15  04 41 40.184   -22 10 55.82  1.0889 1.8512 125.2 22.5 1415 133
2019 10 21 16  04 41 38.517   -22 11 31.60  1.0889 1.8514 125.2 22.5 1426 133
2019 10 21 17  04 41 36.846   -22 12 07.35  1.0889 1.8515 125.3 22.5 1437 133
2019 10 21 18  04 41 35.170   -22 12 43.07  1.0889 1.8517 125.3 22.5 1448 133
2019 10 21 19  04 41 33.490   -22 13 18.74  1.0889 1.8519 125.3 22.5 1460 133
2019 10 21 20  04 41 31.806   -22 13 54.39  1.0888 1.8520 125.3 22.5 1471 133
2019 10 21 21  04 41 30.117   -22 14 29.99  1.0888 1.8522 125.3 22.5 1482 133
2019 10 21 22  04 41 28.423   -22 15 05.56  1.0888 1.8524 125.4 22.5 1493 133
2019 10 21 23  04 41 26.726   -22 15 41.09  1.0888 1.8525 125.4 22.5 1505 133
2019 10 22 00  04 41 25.024   -22 16 16.59  1.0888 1.8527 125.4 22.5 1516 133
2019 10 22 01  04 41 23.317   -22 16 52.04  1.0888 1.8529 125.4 22.5 1528 133
2019 10 22 02  04 41 21.606   -22 17 27.47  1.0888 1.8530 125.5 22.5 1540 133
2019 10 22 03  04 41 19.891   -22 18 02.85  1.0888 1.8532 125.5 22.5 1551 133
2019 10 22 04  04 41 18.171   -22 18 38.20  1.0888 1.8534 125.5 22.5 1563 133
2019 10 22 05  04 41 16.447   -22 19 13.51  1.0888 1.8535 125.5 22.5 1575 133
2019 10 22 06  04 41 14.719   -22 19 48.78  1.0888 1.8537 125.5 22.5 1586 133
2019 10 22 07  04 41 12.986   -22 20 24.02  1.0888 1.8539 125.6 22.5 1598 133
2019 10 22 08  04 41 11.249   -22 20 59.22  1.0888 1.8540 125.6 22.5 1610 133
2019 10 22 09  04 41 09.507   -22 21 34.38  1.0887 1.8542 125.6 22.5 1622 133
2019 10 22 10  04 41 07.761   -22 22 09.51  1.0887 1.8544 125.6 22.5 1634 133
2019 10 22 11  04 41 06.011   -22 22 44.59  1.0887 1.8545 125.7 22.5 1647 133
2019 10 22 12  04 41 04.256   -22 23 19.64  1.0887 1.8547 125.7 22.5 1659 133
2019 10 22 13  04 41 02.497   -22 23 54.66  1.0887 1.8548 125.7 22.5 1671 133
2019 10 22 14  04 41 00.733   -22 24 29.63  1.0887 1.8550 125.7 22.5 1683 133
2019 10 22 15  04 40 58.965   -22 25 04.57  1.0887 1.8552 125.7 22.5 1696 133
2019 10 22 16  04 40 57.193   -22 25 39.47  1.0887 1.8553 125.8 22.5 1708 133
2019 10 22 17  04 40 55.417   -22 26 14.33  1.0887 1.8555 125.8 22.5 1721 133
2019 10 22 18  04 40 53.636   -22 26 49.15  1.0887 1.8557 125.8 22.5 1733 133
2019 10 22 19  04 40 51.850   -22 27 23.94  1.0887 1.8558 125.8 22.5 1746 133
2019 10 22 20  04 40 50.061   -22 27 58.69  1.0887 1.8560 125.9 22.5 1758 134
2019 10 22 21  04 40 48.267   -22 28 33.40  1.0887 1.8562 125.9 22.5 1771 134
2019 10 22 22  04 40 46.469   -22 29 08.07  1.0887 1.8563 125.9 22.5 1784 134
2019 10 22 23  04 40 44.666   -22 29 42.70  1.0887 1.8565 125.9 22.5 1797 134
2019 10 23 00  04 40 42.859   -22 30 17.29  1.0887 1.8567 125.9 22.5 1810 134
2019 10 23 01  04 40 41.048   -22 30 51.85  1.0887 1.8568 126.0 22.5 1823 134